Flag for US Virgin Islands Weather past 2 weeks in Christiansted, US Virgin Islands

Now
91 °F

Scattered clouds.


Feels Like: 102 °F
Forecast: 81 / 87 °F
Wind: 15 mph from Southeast

Location: Christiansted / Henry E. Rohlsen Airport - Saint Croix

Current Time: Jul 26, 2014 at 1:21:27 PM

Latest Report: Jul 26, 2014 at 12:53 PM


Visibility: 10 mi

Pressure: 30.05 "Hg

Humidity: 60%

Dew point: 75 °F

Location of ChristianstedLocation

Historic Weather in Christiansted — Graph

°F

Christiansted temperature yesterday

Maximum temperature yesterday: 92 °F (at 12:53 PM)
Minimum temperature yesterday: 80 °F (at 2:53 AM)
Average temperature yesterday: 85 °F

Past Weeks' High & Low Weather Summary

 TemperatureHumidityPressure
High92 °F (Jul 19, 12:53 PM)89% (Jul 22, 12:36 PM)30.13 "Hg (Jul 22, 12:36 PM)
Low78 °F (Jul 12, 9:53 PM)50% (Jul 24, 10:53 AM)29.99 "Hg (Jul 26, 4:05 AM)
Average84 °F69%30.06 "Hg
* Reported Jul 11 11:53 AM — Jul 26 11:53 AM, Christiansted, Weather by CustomWeather, © 2014

Note: Actual official high and low records may vary slightly from our data, if they occured in-between our weather recording intervals... More about our weather records

Advertising

Christiansted weather history for previous 24 hours

 ConditionsComfort  
Time TempWeatherWind HumidityBarometerVisibility
11:53 AM
Jul 26
90 °FPassing clouds.17 mph59%30.05 "Hg10 mi
10:53 AM90 °FPassing clouds.21 mph57%30.05 "Hg10 mi
8:53 AM87 °FScattered clouds.18 mph63%30.04 "Hg10 mi
7:53 AM85 °FScattered clouds.20 mph70%30.03 "Hg10 mi
6:53 AM83 °FMostly cloudy.14 mph74%30.03 "Hg10 mi
5:53 AM82 °FMostly cloudy.12 mph77%30.02 "Hg10 mi
5:32 AM81 °FOvercast.9 mph79%30.02 "Hg10 mi
4:53 AM81 °FPassing clouds.13 mph79%30.00 "Hg10 mi
4:05 AM81 °FMostly cloudy.17 mph79%29.99 "Hg10 mi
3:53 AM81 °FPassing clouds.14 mph77%29.99 "Hg10 mi
2:53 AM81 °FPassing clouds.8 mph79%30.01 "Hg10 mi
2:31 AM81 °FPassing clouds.14 mph79%30.02 "Hg10 mi
2:14 AM81 °FPassing clouds.16 mph79%30.02 "Hg10 mi
1:53 AM81 °FPassing clouds.12 mph77%30.02 "Hg10 mi
1:13 AM82 °FOvercast.18 mph74%30.04 "Hg10 mi
1:00 AM82 °FMostly cloudy.12 mph74%30.04 "Hg10 mi
12:53 AM82 °FMostly cloudy.14 mph77%30.04 "Hg10 mi
12:03 AM82 °FMostly cloudy.12 mph79%30.06 "Hg10 mi
11:53 PM
Jul 25
82 °FOvercast.14 mph79%30.06 "Hg10 mi
9:53 PM82 °FPassing clouds.14 mph82%30.06 "Hg10 mi
8:53 PM82 °FLight rain. Passing clouds.13 mph82%30.04 "Hg9 mi
7:53 PM83 °FPassing clouds.10 mph74%30.03 "Hg10 mi
6:53 PM84 °FPassing clouds.9 mph70%30.01 "Hg10 mi
5:53 PM85 °FScattered clouds.14 mph68%30.00 "Hg10 mi
4:53 PM87 °FScattered clouds.16 mph61%30.00 "Hg10 mi
2:53 PM90 °FPassing clouds.21 mph59%30.01 "Hg10 mi
1:53 PM91 °FPassing clouds.18 mph57%30.04 "Hg10 mi
Weather by CustomWeather, © 2014

See weather overviewHow to use our weather pages